Date,TemperatureHighF,TemperatureAvgF,TemperatureLowF,DewpointHighF,DewpointAvgF,DewpointLowF,HumidityHigh,HumidityAvg,HumidityLow,PressureMaxIn,PressureMinIn,WindSpeedMaxMPH,WindSpeedAvgMPH,GustSpeedMaxMPH,PrecipitationSumIn
2013-4-1,69.1,52.1,36.0,32.0,24.4,12.2,76,39,12,29.97,29.91,7,1,7,0.00
2013-4-2,67.5,53.7,42.4,38.4,29.8,20.8,79,44,21,30.06,29.94,14,2,14,0.00
2013-4-3,64.9,52.2,40.1,38.4,28.4,20.6,82,43,21,30.08,30.00,11,2,11,0.00
2013-4-4,59.2,48.8,40.5,49.8,37.0,25.2,94,66,35,30.00,29.73,9,1,9,0.12
2013-4-5,62.6,50.8,43.7,45.2,34.2,25.9,87,56,30,29.85,29.76,15,2,15,0.00
2013-4-6,59.5,47.9,42.1,42.1,32.2,19.6,86,58,24,29.85,29.79,15,2,15,0.16
2013-4-7,52.7,43.7,37.6,42.8,30.7,22.4,93,62,37,29.82,29.55,15,2,15,0.35
2013-4-8,51.1,41.4,35.1,31.4,23.0,15.0,79,49,30,30.20,29.76,9,1,9,0.00
2013-4-9,57.0,43.2,28.6,26.5,20.2,15.0,76,42,23,30.29,30.17,8,1,8,0.00
2013-4-10,61.3,49.6,39.4,43.1,26.2,21.2,76,41,25,30.17,29.79,19,3,19,0.04
2013-4-11,57.9,44.8,33.6,29.2,21.1,10.3,74,42,18,30.08,29.97,17,2,17,0.00
2013-4-12,59.2,43.2,30.4,37.7,23.6,12.1,88,52,17,30.06,29.61,13,2,13,0.08
2013-4-13,52.3,41.5,31.8,38.0,16.4,2.7,88,42,16,29.79,29.55,17,3,17,0.00
2013-4-14,50.0,37.8,27.3,24.7,19.0,11.2,78,49,28,29.91,29.79,10,2,10,0.00
2013-4-15,49.8,38.4,30.7,21.0,7.8,-1.6,56,30,14,30.08,29.88,13,2,13,0.00
2013-4-16,48.7,36.9,25.7,6.6,1.8,-4.2,33,23,14,30.29,30.08,16,2,16,0.00
2013-4-17,55.2,38.6,21.7,13.0,5.7,-1.0,59,29,13,30.35,30.23,11,2,11,0.00
2013-4-18,60.3,45.5,28.8,23.2,15.7,6.6,42,31,19,30.26,30.11,12,3,12,0.00
2013-4-19,60.8,49.3,42.4,44.1,36.6,22.8,88,65,34,30.11,29.88,13,3,13,0.28
2013-4-20,64.2,50.0,37.0,32.1,23.5,11.3,76,39,17,30.06,29.91,19,4,19,0.00
2013-4-21,55.6,42.7,35.2,35.4,24.7,19.0,72,50,32,30.26,30.03,10,2,10,0.04
2013-4-22,52.2,41.3,28.4,28.0,11.2,-0.5,79,36,13,30.41,30.26,10,2,13,0.00
2013-4-23,60.1,43.5,28.6,18.0,12.2,4.2,44,30,12,30.29,30.14,10,2,10,0.00
2013-4-24,65.8,47.7,28.6,25.9,16.3,4.9,75,34,10,30.23,29.94,13,2,13,0.00
2013-4-25,69.8,53.2,33.4,26.7,17.6,6.7,62,29,10,30.03,29.91,12,2,12,0.00
2013-4-26,74.7,60.1,44.1,31.6,19.7,6.0,41,23,11,30.14,30.03,13,3,13,0.00
2013-4-27,69.1,56.8,48.2,24.3,17.7,7.1,35,22,12,30.08,29.94,15,3,15,0.00
2013-4-28,66.2,54.4,42.1,29.2,18.8,7.1,56,27,13,30.03,29.82,15,4,15,0.00
2013-4-29,64.0,49.1,39.4,24.9,10.0,-1.0,43,22,11,29.94,29.70,20,4,20,0.00
2013-4-30,59.2,40.9,28.0,22.0,11.6,1.3,48,31,13,30.29,29.94,13,1,13,0.00